Weather History for KPIR - October, 2013

Change the Weather History Date:

Tuesday, October 22, 2013

  Actual Average Record
Temperature  
Mean Temperature 38 °F 46 °F  
Max Temperature 44 °F 58 °F 85 °F (1992)
Min Temperature 31 °F 34 °F 18 °F (1981)
Degree Days  
Heating Degree Days 27 19  
Month to date heating degree days 371 319  
Since 1 July heating degree days 436 490  
Cooling Degree Days 0 0  
Month to date cooling degree days 0 2  
Year to date cooling degree days 853 865  
Moisture  
Dew Point 36 °F    
Average Humidity 85    
Maximum Humidity 100    
Minimum Humidity 70    
Precipitation  
Precipitation T in 0.05 in 0.49 in (1957)
Month to date precipitation 4.64 1.30  
Year to date precipitation 22.72 18.35  
Snow  
Snow 0.00 in 0.00 in 3.50 in (2002)
Month to date snowfall T 0.4  
Since 1 July snowfall T 0.4  
Snow Depth 0.00 in    
Sea Level Pressure  
Sea Level Pressure 30.02 in    
Wind  
Wind Speed 7 mph (North)    
Max Wind Speed 18 mph    
Max Gust Speed 22 mph    
Visibility 10 miles    
Events Rain    
T = Trace of Precipitation, MM = Missing Value Source: NWS Daily Summary

Daily Weather History Graph

Daily Weather History Graph

Search for Another Location

Airport or City:

Trip Planner

Search our weather history database for the weather conditions in past years. The results will help you decide how hot, cold, wet, or windy it might be!

Date:

Astronomy

Oct. 22, 2013 Rise Set
Actual Time 8:05 AM CDT 6:44 PM CDT
Civil Twilight 7:35 AM CDT 7:14 PM CDT
Nautical Twilight 7:01 AM CDT 7:48 PM CDT
Astronomical Twilight 6:28 AM CDT 8:21 PM CDT
Moon 9:20 PM CDT (10/22) 11:41 AM CDT (10/22)
Length of Visible Light 11h 38m
Length of Day
10h 39m
Waning Gibbous, 86% of the Moon is Illuminated
Oct 22
Waning Gibbous
Oct 26
Last Quarter
Nov 3
New
Nov 9
First Quarter
Nov 17
Full

Hourly Weather History & Observations

Time (CDT) Temp. Windchill Dew Point Humidity Pressure Visibility Wind Dir Wind Speed Gust Speed Precip Events Conditions
12:26 AM 42.8 °F 38.0 °F 39.2 °F 87% 29.88 in 10.0 mi West 8.1 mph - N/A   Overcast
12:53 AM 44.1 °F 38.6 °F 42.1 °F 93% 29.92 in 10.0 mi NNW 10.4 mph - N/A   Overcast
1:53 AM 42.1 °F 37.1 °F 39.9 °F 92% 29.94 in 10.0 mi North 8.1 mph - N/A   Overcast
2:09 AM 41.0 °F 37.1 °F 39.2 °F 93% 29.92 in 10.0 mi North 5.8 mph - N/A   Overcast
2:28 AM 41.0 °F 35.8 °F 39.2 °F 93% 29.92 in 10.0 mi NNW 8.1 mph - N/A   Overcast
2:37 AM 41.0 °F 35.2 °F 39.2 °F 93% 29.93 in 10.0 mi NNW 9.2 mph - N/A   Overcast
2:53 AM 39.9 °F 35.1 °F 39.0 °F 97% 29.96 in 10.0 mi North 6.9 mph - N/A   Mostly Cloudy
3:01 AM 41.0 °F 37.1 °F 39.2 °F 93% 29.94 in 10.0 mi North 5.8 mph - N/A   Mostly Cloudy
3:10 AM 39.2 °F 33.6 °F 39.2 °F 100% 29.94 in 10.0 mi NE 8.1 mph - N/A   Mostly Cloudy
3:53 AM 37.0 °F 34.5 °F 37.0 °F 100% 29.97 in 10.0 mi NNE 3.5 mph - N/A   Overcast
4:01 AM 37.4 °F 34.9 °F 37.4 °F 100% 29.94 in 8.0 mi NE 3.5 mph - N/A   Overcast
4:23 AM 37.4 °F 33.8 °F 37.4 °F 100% 29.94 in 9.0 mi NE 4.6 mph - N/A   Overcast
4:37 AM 37.4 °F 32.8 °F 35.6 °F 93% 29.94 in 8.0 mi NE 5.8 mph - N/A   Overcast
4:46 AM 37.4 °F 32.1 °F 35.6 °F 93% 29.95 in 8.0 mi NNE 6.9 mph - N/A   Overcast
4:53 AM 37.0 °F 33.3 °F 36.0 °F 96% 29.99 in 9.0 mi North 4.6 mph - N/A   Overcast
5:03 AM 37.4 °F 33.8 °F 35.6 °F 93% 29.94 in 9.0 mi NNE 4.6 mph - N/A   Overcast
5:37 AM 37.4 °F - 35.6 °F 93% 29.95 in 8.0 mi Calm Calm - N/A   Overcast
5:53 AM 36.0 °F - 34.0 °F 93% 29.99 in 5.0 mi Calm Calm - N/A   Scattered Clouds
6:11 AM 35.6 °F - 35.6 °F 100% 29.97 in 6.0 mi Calm Calm - N/A   Mostly Cloudy
6:53 AM 37.9 °F 32.1 °F 37.0 °F 97% 30.00 in 10.0 mi NNW 8.1 mph - N/A   Overcast
7:06 AM 39.2 °F 34.2 °F 37.4 °F 93% 29.97 in 10.0 mi NNW 6.9 mph - N/A   Overcast
7:36 AM 37.4 °F 30.8 °F 35.6 °F 93% 29.98 in 10.0 mi NW 9.2 mph - N/A   Mostly Cloudy
7:53 AM 39.0 °F 32.8 °F 37.0 °F 93% 30.02 in 10.0 mi NW 9.2 mph - N/A   Mostly Cloudy
8:53 AM 39.9 °F 32.1 °F 35.1 °F 83% 30.05 in 10.0 mi NNW 13.8 mph - N/A   Overcast
9:53 AM 39.9 °F 32.1 °F 35.1 °F 83% 30.08 in 10.0 mi North 13.8 mph - N/A   Overcast
10:17 AM 41.0 °F 33.9 °F 35.6 °F 81% 30.05 in 10.0 mi North 12.7 mph - N/A   Overcast
10:53 AM 39.9 °F 31.8 °F 33.1 °F 77% 30.10 in 10.0 mi NNW 15.0 mph - N/A   Overcast
11:13 AM 39.2 °F 30.8 °F 33.8 °F 81% 30.07 in 10.0 mi North 15.0 mph - N/A   Overcast
11:44 AM 41.0 °F 33.5 °F 33.8 °F 76% 30.07 in 10.0 mi North 13.8 mph - N/A   Overcast
11:53 AM 41.0 °F 33.5 °F 34.0 °F 76% 30.11 in 10.0 mi NNW 13.8 mph - N/A   Overcast
12:53 PM 42.1 °F 36.1 °F 35.1 °F 76% 30.11 in 10.0 mi North 10.4 mph - N/A   Overcast
1:53 PM 41.0 °F 34.7 °F 35.1 °F 79% 30.10 in 9.0 mi NNE 10.4 mph - 0.00 in Rain Light Rain
2:21 PM 41.0 °F 35.2 °F 35.6 °F 81% 30.07 in 10.0 mi North 9.2 mph - 0.00 in   Overcast
2:53 PM 42.1 °F 36.6 °F 36.0 °F 79% 30.11 in 10.0 mi NW 9.2 mph - 0.00 in Rain Light Rain
3:21 PM 42.8 °F 37.5 °F 35.6 °F 76% 30.08 in 10.0 mi NNW 9.2 mph - 0.00 in   Overcast
3:53 PM 43.0 °F 37.7 °F 35.1 °F 74% 30.11 in 10.0 mi NNW 9.2 mph - 0.00 in   Overcast
4:53 PM 43.0 °F 36.8 °F 35.1 °F 74% 30.12 in 10.0 mi NNW 11.5 mph - N/A   Overcast
5:53 PM 42.1 °F 36.6 °F 34.0 °F 73% 30.12 in 10.0 mi NNW 9.2 mph - N/A   Clear
6:53 PM 39.0 °F 36.8 °F 34.0 °F 82% 30.12 in 10.0 mi North 3.5 mph - N/A   Clear
7:53 PM 37.9 °F - 33.1 °F 83% 30.11 in 10.0 mi Calm Calm - N/A   Clear
8:53 PM 34.0 °F - 30.9 °F 89% 30.11 in 10.0 mi Calm Calm - N/A   Partly Cloudy
9:53 PM 34.0 °F - 30.9 °F 89% 30.12 in 10.0 mi Calm Calm - N/A   Clear
10:53 PM 30.9 °F - 28.0 °F 89% 30.12 in 10.0 mi Calm Calm - N/A   Clear
11:53 PM 34.0 °F - 30.9 °F 89% 30.12 in 10.0 mi Calm Calm - N/A   Mostly Cloudy